[[{"header":{"parameterUnit":"m.s-1","parameterCategory":1,"la1":30.2991,"la2":30.254,"lo1":-89.0895,"lo2":-89.0444,"dy":0.0017,"dx":0.0017,"nx":28,"ny":28,"refTime":"2024-07-31T21:00:00:Z","depth":0,"parameterNumber":2,"parameterNumberName":"U-component_of_WINDS"},"data":[0,0,0,0,0,0,0,0,0,0,0,0,0,0,0,0,0,0,0,0,0,0,0,0,0,0,0,0,0,0,0,0,0,0,0,0,0,0,0,0,0,0,0,0,0,0,0,0,0,0,0,0,0,0,0,0,0,0,3.3483,3.3483,0,3.3524,3.3524,3.3525,3.3435,3.3432,3.3429,3.3427,3.3471,3.3475,3.3479,0,0,0,0,0,0,0,0,0,0,0,0,0,3.3328,3.3332,3.3483,3.3483,3.3484,3.3524,3.3524,3.3525,3.3436,3.3432,3.3429,3.3425,3.347,3.3475,3.3479,0,0,0,0,0,0,0,0,0,0,0,0,0,3.3385,3.3333,3.3483,3.3444,3.3441,3.3523,3.3524,3.3525,3.3436,3.3432,3.3428,3.3424,3.3469,3.3474,3.348,3.3603,0,0,3.3498,3.35,0,0,0,0,0,0,0,0,3.3382,3.3391,3.3449,3.3447,3.3444,3.347,3.3486,3.3551,3.3438,3.3438,3.3427,3.3422,3.3475,3.348,3.3497,3.3605,3.3607,3.3498,3.3502,3.3504,3.3506,0,0,0,0,0,0,0,3.3378,3.3389,3.3499,3.345,3.3447,3.3425,3.3428,3.3498,3.348,3.3438,3.3432,3.3437,3.3472,3.3492,3.3497,3.3607,3.3498,3.3503,3.3507,3.3509,3.3813,3.3817,0,0,0,0,0,0,3.3379,3.3386,3.3498,3.35,3.3401,3.3431,3.3435,3.3466,3.3479,3.3477,3.3441,3.3433,3.3484,3.3491,3.3499,3.364,3.3504,3.351,3.3513,3.3809,3.3814,3.3819,0,0,0,0,0,0,3.3376,3.339,3.3496,3.3441,3.3453,3.3438,3.3474,3.3469,3.3488,3.3482,3.3478,3.3464,3.3481,3.349,3.3576,3.364,3.3512,3.3518,3.3803,3.381,3.3817,3.3925,0,0,0,0,0,0,3.3372,3.3389,3.3436,3.3443,3.3456,3.3574,3.3478,3.3473,3.3498,3.3488,3.3502,3.35,3.3478,3.3568,3.3582,3.3646,3.3522,3.3797,3.3806,3.3814,3.3916,3.3935,3.3951,0,0,0,0,0,3.3367,3.3467,3.3439,3.3453,3.3514,3.3577,3.3585,3.3556,3.3504,3.355,3.3545,3.35,3.3631,3.3578,3.3593,3.3659,3.3793,3.3804,3.3814,3.3908,3.3931,3.3951,0,0,0,0,0,0,3.347,3.3467,3.3436,3.3541,3.356,3.3562,3.362,3.3583,3.3618,3.3607,3.357,3.3574,3.3667,3.3672,3.3612,3.3776,3.3703,3.3717,3.3769,3.3792,3.3809,3.3805,3.3527,0,0,0,0,0,3.3504,3.3555,3.355,3.3643,3.3654,3.3636,3.3662,3.3638,3.3656,3.3664,3.3666,3.3686,3.3731,3.3762,3.3804,3.3916,3.3916,3.3969,3.3987,3.4001,3.4013,3.407,3.4092,3.3853,3.3853,3.3853,0,0,3.3577,3.3581,3.3616,3.3664,3.3675,3.3728,3.3643,3.3704,3.3742,3.3674,3.3753,3.3755,3.3775,3.3874,3.3918,3.3881,3.4079,3.4015,3.4026,3.403,3.4083,3.4105,3.4125,3.386,3.3859,3.3858,0,0,3.3735,3.3745,3.3821,3.3834,3.3852,3.3838,3.3857,3.3864,3.3862,3.3941,3.3889,3.3935,3.4015,3.403,3.4048,3.4208,3.4167,3.4223,3.4315,3.4371,3.439,3.4406,3.446,3.4481,3.4235,3.4236,3.4236,0,3.3823,3.39,3.3866,3.3929,3.395,3.3888,3.3965,3.3979,3.401,3.4026,3.3985,3.408,3.409,3.4189,3.4228,3.4246,3.4264,3.4221,3.439,3.4406,3.4421,3.4472,3.4493,3.4242,3.4241,3.4241,3.424,0,3.4006,3.406,3.412,3.4148,3.4177,3.4247,3.4222,3.4255,3.4228,3.4219,3.4298,3.4307,3.4347,3.437,3.4345,3.4465,3.4441,3.4396,3.4321,3.445,3.4498,3.4518,3.4251,3.4249,3.4247,3.4246,0,0,3.4232,3.4238,3.426,3.4271,3.4284,3.4325,3.4391,3.4429,3.4456,3.448,3.4533,3.46,3.4556,3.4577,3.4553,3.4602,3.4724,3.4549,3.4549,3.4579,3.4853,3.4886,3.491,3.4697,3.4701,3.4704,3.4851,0,3.4386,3.4497,3.4467,3.4578,3.4626,3.4566,3.4623,3.4638,3.463,3.467,3.4662,3.4708,3.4649,3.466,3.4706,3.47,3.4778,3.4689,3.4745,3.4747,3.474,3.4935,3.4971,3.5109,3.4869,3.4873,3.4875,0,3.4581,3.4609,3.4724,3.4726,3.4745,3.4797,3.4826,3.4865,3.488,3.487,3.4892,3.4857,3.4921,3.4846,3.4932,3.4872,3.4893,3.4893,3.4898,3.4901,3.4818,3.4941,3.5153,3.5173,3.4904,3.4902,3.49,0,3.473,3.4797,3.4873,3.4884,3.489,3.4926,3.4931,3.494,3.4963,3.499,3.5004,3.5039,3.5058,3.5085,3.506,3.5009,3.5149,3.5074,3.5142,3.5143,3.5174,3.5172,3.539,3.5191,3.5191,3.519,3.519,0,3.4905,3.4977,3.4939,3.4986,3.5065,3.5029,3.5107,3.5105,3.5113,3.5158,3.511,3.5153,3.5118,3.5158,3.5139,3.5211,3.5221,3.5215,3.5208,3.5218,3.5218,3.523,3.5219,3.5196,3.5195,3.5194,3.5193,0,3.5085,3.5063,3.5141,3.5138,3.5139,3.5197,3.5194,3.5237,3.5225,3.5282,3.5293,3.5274,3.5318,3.5296,3.5343,3.533,3.5423,3.5405,3.5417,3.5412,3.548,3.5473,3.5712,3.574,3.5526,3.5528,3.553,0,3.5196,3.525,3.5251,3.5277,3.5283,3.5326,3.5348,3.5314,3.534,3.5358,3.5398,3.5437,3.5467,3.554,3.5531,3.5565,3.5546,3.5627,3.5551,3.5558,3.5544,3.554,3.5544,3.5642,3.5645,3.5647,3.5649,0,3.5396,3.5381,3.5415,3.5444,3.5471,3.5494,3.5512,3.5535,3.5502,3.5533,3.5576,3.5598,3.5644,3.5683,3.5712,3.5716,3.5677,3.5673,3.569,3.5699,3.5703,3.5698,3.5456,3.5667,3.5665,3.5664,3.5663,3.5662,3.5543,3.5586,3.5593,3.5631,3.564,3.5657,3.5696,3.5687,3.5722,3.5755,3.5733,3.5783,3.5793,3.5828,3.5837,3.5875,3.5843,3.5869,3.5875,3.5881,3.5888,3.5698,3.5881,3.588,3.588,3.5879,3.5879,0,3.5737,3.5738,3.5773,3.5798,3.5827,3.5786,3.5803,3.583,3.5874,3.5886,3.5915,3.5963,3.6,3.5993,3.6026,3.6058,3.604,3.6067,3.6064,3.6064,3.5917,3.5898,3.6081,3.6081,3.608,3.608,3.608,3.608,3.5842,3.5911,3.5897,3.597,3.597,3.6017,3.603,3.6045,3.6053,3.6109,3.6138,3.6132,3.6136,3.6168,3.6199,3.6196,3.6209,3.6243,3.6233,3.6095,3.6075,3.6056,3.6037,3.6247,3.6247,3.6376,3.6378,3.6379]},{"header":{"parameterUnit":"m.s-1","parameterCategory":1,"la1":30.2991,"la2":30.254,"lo1":-89.0895,"lo2":-89.0444,"dy":0.0017,"dx":0.0017,"nx":28,"ny":28,"refTime":"2024-07-31T21:00:00:Z","depth":0,"parameterNumber":3,"parameterNumberName":"V-component_of_WINDS"},"data":[0,0,0,0,0,0,0,0,0,0,0,0,0,0,0,0,0,0,0,0,0,0,0,0,0,0,0,0,0,0,0,0,0,0,0,0,0,0,0,0,0,0,0,0,0,0,0,0,0,0,0,0,0,0,0,0,0,0,2.9565,2.9566,0,2.961,2.961,2.9611,2.9572,2.957,2.9569,2.9567,2.961,2.9612,2.9615,0,0,0,0,0,0,0,0,0,0,0,0,0,2.9442,2.9445,2.9565,2.9566,2.9566,2.961,2.961,2.9611,2.9572,2.957,2.9568,2.9566,2.9609,2.9612,2.9615,0,0,0,0,0,0,0,0,0,0,0,0,0,2.9492,2.9446,2.9565,2.9552,2.9552,2.961,2.961,2.9611,2.9572,2.957,2.9568,2.9565,2.9608,2.9612,2.9616,2.9688,0,0,2.9628,2.963,0,0,0,0,0,0,0,0,2.949,2.9497,2.9554,2.9553,2.9553,2.9583,2.9583,2.9637,2.9573,2.9564,2.9567,2.9564,2.9603,2.9607,2.962,2.969,2.9692,2.9628,2.9631,2.9632,2.9633,0,0,0,0,0,0,0,2.9486,2.9495,2.9583,2.9554,2.9554,2.9543,2.9547,2.9593,2.9596,2.9565,2.9562,2.9568,2.9602,2.9617,2.9621,2.9693,2.9628,2.9632,2.9634,2.9636,2.9821,2.9824,0,0,0,0,0,0,2.9484,2.9492,2.9581,2.9584,2.9515,2.9547,2.9552,2.9576,2.9596,2.9597,2.957,2.9566,2.9611,2.9617,2.9623,2.9707,2.9632,2.9636,2.9638,2.9819,2.9822,2.9825,0,0,0,0,0,0,2.9482,2.9493,2.958,2.9537,2.9548,2.9552,2.9578,2.9578,2.9592,2.96,2.96,2.9585,2.961,2.9617,2.9672,2.9708,2.9638,2.9641,2.9816,2.982,2.9823,2.9877,0,0,0,0,0,0,2.9479,2.9492,2.9521,2.9538,2.955,2.9629,2.9581,2.958,2.96,2.9595,2.9614,2.9614,2.9608,2.9666,2.9676,2.9712,2.9644,2.9812,2.9818,2.9822,2.9872,2.9883,2.9891,0,0,0,0,0,2.9474,2.9534,2.9522,2.9533,2.9586,2.9632,2.9638,2.9631,2.9603,2.9631,2.9635,2.9614,2.9703,2.9672,2.9683,2.9721,2.981,2.9816,2.9822,2.9868,2.9881,2.9891,0,0,0,0,0,0,2.952,2.9536,2.9523,2.9591,2.961,2.9625,2.966,2.9644,2.9671,2.9666,2.9654,2.9659,2.9716,2.9724,2.969,2.9791,2.9752,2.976,2.9783,2.9795,2.9805,2.9801,2.9648,0,0,0,0,0,2.9538,2.9575,2.9587,2.9645,2.9655,2.9656,2.9676,2.9668,2.9687,2.9695,2.9704,2.9722,2.9754,2.9775,2.9805,2.9874,2.9876,2.9905,2.9914,2.9922,2.9929,2.9964,2.9976,2.9844,2.9844,2.9844,0,0,2.9575,2.9589,2.9613,2.9654,2.9668,2.9705,2.9663,2.9705,2.9731,2.9701,2.9753,2.976,2.978,2.9841,2.9869,2.9849,2.9966,2.9929,2.9936,2.9938,2.9971,2.9983,2.9994,2.9848,2.9847,2.9846,0,0,2.9662,2.9677,2.9726,2.9741,2.9763,2.9763,2.9775,2.9792,2.9795,2.9848,2.9825,2.9856,2.9912,2.9926,2.9941,3.0032,3.0012,3.0042,3.0091,3.0125,3.0135,3.0145,3.0175,3.0187,3.0049,3.0049,3.0049,0,2.9705,2.9761,2.9753,2.9796,2.9814,2.9789,2.9837,2.9852,2.9882,2.9895,2.9873,2.9941,2.9953,3.0017,3.0039,3.0052,3.0064,3.0039,3.0135,3.0144,3.0152,3.0181,3.0193,3.0052,3.0052,3.0052,3.0051,0,2.9812,2.9851,2.9888,2.9918,2.9941,2.9986,2.9984,3.0007,2.9997,2.9999,3.0051,3.0065,3.0096,3.0111,3.0102,3.0172,3.016,3.0137,3.0097,3.0168,3.0195,3.0207,3.0057,3.0056,3.0055,3.0054,0,0,2.9929,2.9953,2.9967,2.998,3.0002,3.0031,3.0075,3.0106,3.0125,3.0147,3.0182,3.0229,3.0207,3.0224,3.0216,3.0246,3.0315,3.0219,3.022,3.0235,3.0392,3.0408,3.0421,3.0303,3.0305,3.0307,3.039,0,3.0015,3.0091,3.0085,3.0157,3.0191,3.0168,3.0205,3.0222,3.0225,3.0254,3.0256,3.0289,3.0259,3.0269,3.0298,3.0301,3.0346,3.0295,3.0334,3.0335,3.0328,3.0436,3.0453,3.0531,3.04,3.0402,3.0404,0,3.0126,3.0151,3.0227,3.0242,3.0256,3.0291,3.0318,3.0346,3.0364,3.0364,3.0382,3.0369,3.041,3.0371,3.0428,3.0393,3.0408,3.0412,3.0415,3.0417,3.0373,3.0439,3.0556,3.0567,3.042,3.0419,3.0418,0,3.0201,3.0254,3.0306,3.0318,3.0337,3.0362,3.0371,3.0386,3.0405,3.0428,3.044,3.0468,3.0483,3.0504,3.0498,3.047,3.0555,3.0516,3.0555,3.0555,3.0573,3.0572,3.0692,3.0585,3.0585,3.0585,3.0585,0,3.0297,3.0343,3.034,3.0371,3.0422,3.0414,3.0464,3.047,3.0484,3.0515,3.0496,3.0526,3.0517,3.0545,3.0541,3.0587,3.0594,3.0594,3.0592,3.0595,3.0595,3.0604,3.0598,3.0588,3.0587,3.0587,3.0586,0,3.0389,3.0389,3.0443,3.0457,3.0462,3.0499,3.051,3.0539,3.054,3.0579,3.0588,3.0589,3.0622,3.0618,3.0654,3.0651,3.0709,3.0701,3.0703,3.07,3.0739,3.0735,3.0868,3.0885,3.0769,3.077,3.0771,0,3.0449,3.0485,3.0503,3.0523,3.0533,3.0566,3.0585,3.0577,3.0597,3.062,3.0646,3.0677,3.0701,3.0754,3.0757,3.0784,3.0776,3.0821,3.0779,3.0781,3.0774,3.0772,3.0774,3.0828,3.083,3.0831,3.0831,0,3.0556,3.0554,3.0583,3.0611,3.0634,3.0656,3.0676,3.0693,3.0687,3.071,3.0744,3.0762,3.0799,3.083,3.0855,3.0863,3.0846,3.0845,3.0855,3.0857,3.0856,3.0856,3.0723,3.0841,3.084,3.0839,3.0839,3.0839,3.0633,3.0663,3.068,3.0712,3.0726,3.0745,3.0772,3.0776,3.0804,3.0834,3.0828,3.0865,3.088,3.0913,3.0923,3.0951,3.0934,3.095,3.0953,3.0957,3.096,3.0853,3.0956,3.0956,3.0955,3.0955,3.0955,0,3.0738,3.0747,3.0777,3.0805,3.083,3.0813,3.0833,3.0854,3.0888,3.0904,3.0928,3.0965,3.0994,3.1,3.1027,3.1048,3.1041,3.1056,3.1053,3.1055,3.0975,3.0962,3.1061,3.1061,3.1061,3.1061,3.1061,3.1061,3.0795,3.0844,3.0843,3.0898,3.0907,3.0944,3.0957,3.0973,3.0986,3.1029,3.1053,3.1057,3.1068,3.1096,3.1121,3.1122,3.1132,3.1149,3.1147,3.1071,3.1061,3.1051,3.1039,3.1152,3.1152,3.1225,3.1225,3.1226]}]]